Flag for Cuba

Past Weather in Provincia de Ciego de Ávila, Cuba — Yesterday and Last 2 Weeks

Now
72 °F

Passing clouds.


Feels Like: 71 °F
Forecast: 85 / 69 °F
Wind: 2 mph from Northeast

Location: Santa Bárbara

Current Time: Mar 20, 2019 at 10:32:03 pm

Latest Report: Mar 20, 2019 at 9:50 pm


Visibility: 5 mi

Pressure: 29.98 "Hg

Humidity: 83%

Dew Point: 66 °F

Location of Provincia de Ciego de ÁvilaLocation

Past Weather in Provincia de Ciego de Ávila — Graph

°F

Provincia de Ciego de Ávila Temperature Yesterday

Maximum temperature yesterday: 88 °F (at 1:51 pm)
Minimum temperature yesterday: 66 °F (at 5:50 am)
Average temperature yesterday: 76 °F

High & Low Weather Summary for the Past Weeks

 TemperatureHumidityPressure
High88 °F (Mar 18, 3:50 pm)94% (Mar 5, 7:50 pm)30.21 "Hg (Mar 5, 7:50 pm)
Low55 °F (Mar 8, 6:52 am)35% (Mar 19, 3:51 pm)29.92 "Hg (Mar 18, 3:50 pm)
Average73 °F75%30.07 "Hg
* Reported Mar 5 7:50 pm — Mar 20 8:51 pm, Provincia de Ciego de Ávila. Weather by CustomWeather, © 2019

Note: Actual official high and low records may vary slightly from our data, if they occured in-between our weather recording intervals... More about our weather records

Advertising

Provincia de Ciego de Ávila Weather History for the Previous 24 Hours

Scroll right to see more
 ConditionsComfort  
Time TempWeatherWind HumidityBarometerVisibility
8:51 pm
Wed, Mar 20
70 °FPassing clouds.2 mph88%29.95 "Hg5 mi
7:50 pm72 °FPassing clouds.5 mph83%29.95 "Hg5 mi
6:50 pm73 °FScattered showers. Partly sunny.5 mph83%29.92 "Hg5 mi
6:25 pm72 °FScattered showers. Partly sunny.6 mph88%29.92 "Hg5 mi
5:54 pm72 °FRain showers. Partly sunny.6 mph88%29.92 "Hg4 mi
4:51 pm77 °FScattered showers. Partly sunny.9 mph69%29.92 "Hg5 mi
3:52 pm77 °FScattered showers. Partly sunny.6 mph79%29.92 "Hg5 mi
3:43 pm75 °FRain. Partly sunny.9 mph78%29.92 "Hg5 mi
2:50 pm81 °FPartly sunny.10 mph62%29.92 "Hg6 mi
1:50 pm79 °FPartly sunny.10 mph65%29.95 "Hg5 mi
12:51 pm77 °FPartly sunny.9 mph69%29.98 "Hg5 mi
11:50 am75 °FPartly sunny.5 mph74%30.01 "Hg5 mi
10:50 am72 °FPartly sunny.5 mph83%30.01 "Hg5 mi
9:50 am70 °FBroken clouds.2 mph88%30.01 "Hg5 mi
8:50 am70 °FPartly sunny.6 mph94%29.98 "Hg5 mi
7:50 am68 °FLight rain. Broken clouds.2 mph94%29.95 "Hg4 mi
7:39 am70 °FLight rain. Broken clouds.1 mph88%29.95 "Hg4 mi
7:29 am70 °FRain. Partly sunny.5 mph88%29.95 "Hg2 mi
7:13 am70 °FLight rain. Passing clouds.2 mph88%29.95 "Hg3 mi
6:51 am70 °FPartly cloudy.1 mph88%29.92 "Hg5 mi
5:51 am68 °FPartly cloudy.1 mph88%29.92 "Hg4 mi
4:51 am68 °FPassing clouds.1 mph88%29.92 "Hg4 mi
3:51 am66 °FPassing clouds.1 mph94%29.92 "Hg6 mi
2:50 am66 °FPassing clouds.1 mph94%29.95 "Hg6 mi
1:51 am68 °FPassing clouds.1 mph88%29.98 "Hg6 mi
12:50 am70 °FPassing clouds.1 mph88%29.98 "Hg6 mi
11:50 pm
Tue, Mar 19
70 °FPassing clouds.2 mph88%30.01 "Hg6 mi
10:51 pm72 °FPassing clouds.No wind88%29.98 "Hg6 mi
Weather by CustomWeather, © 2019

See weather overview